Wind_Speed
8 4 4 5 5 6 5 6 6 2 3 3 3 4 8 7 6 5 2 5 13 7 2 5 7 10 12 11 12 20 24 20 19 21 22 19 19 24 29 30 30 30 33 33 33 33 31 30 27 25 24 22 22 22 20 18 18 19 20 20 20 20 20 20 21 20 17 17 16 14 12 11 11 9 8 8 8 8 7 8 7 7 8 8 9 9
6 5 6 7 7 7 5 5 6 2 1 1 4 4 6 6 3 3 4 6 11 6 2 6 8 10 12 10 11 17 19 18 22 23 21 20 19 22 26 30 31 29 31 33 33 34 32 30 28 26 26 24 23 23 22 20 19 19 20 20 20 20 20 20 21 19 17 16 15 13 12 11 10 9 8 7 7 7 7 7 7 7 7 8 9 9
3 5 7 7 5 4 3 4 6 3 3 2 3 4 4 4 2 4 6 8 8 3 2 6 7 7 9 9 10 13 14 17 25 25 22 19 19 23 24 27 31 29 30 34 34 35 35 32 29 29 28 25 23 22 22 22 20 20 20 20 20 20 20 20 21 19 17 15 14 12 10 9 8 8 7 5 5 6 7 8 7 7 6 7 8 7
3 6 7 7 4 2 2 2 5 2 1 2 4 4 3 6 5 2 5 9 5 3 5 8 6 4 5 7 9 12 10 12 20 22 18 16 18 24 25 24 30 32 32 35 35 36 36 33 32 31 30 27 25 23 23 23 23 22 21 21 21 22 21 20 21 19 17 16 15 12 9 8 7 7 8 7 6 7 8 8 8 7 7 7 8 7
5 7 4 4 3 3 3 2 3 3 2 1 4 4 3 7 4 3 7 8 4 4 8 10 5 1 4 6 6 8 10 11 15 17 14 12 15 23 26 23 26 32 34 35 36 37 37 36 34 33 32 30 28 26 25 24 24 23 22 21 20 21 21 21 21 19 17 17 16 14 11 10 10 9 11 10 9 9 9 8 7 7 8 8 8 8
7 9 2 2 2 3 3 4 3 5 2 2 4 7 7 8 5 8 11 8 4 1 6 9 4 2 4 5 5 5 8 10 13 17 15 12 14 22 27 24 24 30 34 35 36 38 38 37 36 35 33 32 30 28 26 24 22 22 22 21 19 20 21 21 21 19 18 19 18 17 15 15 14 14 14 11 10 10 8 7 6 6 7 8 8 8
4 6 3 3 4 3 4 5 4 7 4 1 5 7 8 8 10 13 13 8 3 3 6 7 3 1 3 4 6 5 7 10 11 15 17 16 16 22 27 25 23 28 33 35 36 37 38 38 38 38 35 34 32 29 27 26 23 22 22 21 19 19 20 21 21 20 19 20 20 19 17 16 15 15 13 10 9 8 7 7 7 6 6 7 7 8
4 5 4 4 4 4 4 5 4 7 6 3 5 6 10 10 13 16 13 7 3 4 5 6 3 3 3 4 6 7 9 10 9 11 15 18 20 24 28 25 22 27 33 36 36 37 39 40 40 39 36 35 32 30 29 28 24 23 23 22 19 19 20 21 21 21 21 20 20 20 18 16 15 13 11 10 10 9 7 8 8 6 6 6 7 7
3 6 6 6 5 4 5 6 6 8 5 6 4 8 11 12 14 15 10 4 4 5 3 7 4 3 2 3 6 8 10 12 13 14 15 20 24 27 29 27 21 24 31 35 37 38 38 39 40 38 36 35 33 31 30 27 24 23 23 22 20 20 20 21 21 22 22 21 21 20 19 17 14 12 9 9 10 10 9 9 8 7 5 6 7 7
3 7 8 7 5 5 6 7 7 9 6 6 5 8 7 8 10 9 5 2 4 4 4 9 7 2 1 3 7 8 10 13 14 14 16 22 28 30 31 29 24 24 29 32 35 38 38 38 39 37 35 35 33 31 29 26 24 24 24 22 21 21 20 20 22 23 24 24 22 20 20 18 15 12 10 10 11 11 10 9 9 8 6 6 6 7
7 10 8 5 7 8 8 8 10 12 9 3 4 4 3 3 4 4 3 3 4 2 6 10 11 4 1 4 9 8 8 12 13 11 15 21 27 32 33 32 28 26 28 29 32 37 38 38 38 37 36 35 34 31 29 27 25 25 24 23 22 21 20 21 23 24 25 25 23 21 21 20 17 14 13 13 13 13 11 11 11 8 6 5 4 6
6 7 6 6 12 12 7 6 10 12 9 4 4 4 5 3 4 4 4 4 2 4 5 8 11 5 2 4 9 8 4 8 14 13 15 20 25 32 34 33 31 28 28 29 30 33 38 39 39 39 38 36 34 32 30 28 27 26 25 23 22 22 21 21 24 25 25 26 24 23 22 21 18 15 15 15 15 14 12 11 11 9 7 6 4 6
3 5 4 5 11 12 7 3 5 6 6 5 4 5 5 2 1 2 2 2 2 5 4 6 9 4 5 5 7 10 7 7 14 16 18 22 25 30 34 35 33 29 28 30 29 29 36 40 40 41 39 37 35 33 31 29 27 26 25 24 23 22 22 22 24 26 26 26 25 24 23 21 19 17 17 17 15 14 13 11 10 9 8 8 6 6
2 5 4 2 6 9 9 5 4 4 5 6 6 6 5 4 3 2 1 1 3 5 3 7 9 3 5 3 1 7 10 11 15 18 21 26 29 31 34 34 30 27 27 28 26 26 33 39 41 41 40 38 36 33 31 29 27 26 25 25 24 22 22 22 25 26 27 26 25 25 24 22 20 19 18 18 16 14 14 12 11 10 9 9 8 6
2 4 5 4 4 6 9 8 7 5 5 6 6 6 5 5 4 4 4 3 3 3 1 7 7 2 2 2 5 6 11 16 17 18 21 26 29 29 29 27 24 22 21 22 19 21 30 38 40 41 40 38 36 34 32 30 28 26 25 25 25 23 21 22 24 25 26 26 25 25 25 23 22 21 20 19 18 16 15 14 13 12 11 10 9 7
3 4 7 5 4 4 7 7 7 7 4 3 4 6 4 6 6 4 5 7 3 2 2 4 3 3 3 3 7 4 6 12 13 14 18 22 24 23 23 22 19 13 11 13 15 17 28 36 38 40 41 39 37 35 33 31 29 27 25 23 24 23 22 22 23 25 25 25 25 25 25 24 23 23 23 21 20 18 17 17 16 14 13 11 10 9
1 4 6 4 4 5 8 8 7 7 5 2 3 4 4 5 7 5 3 2 3 3 1 1 1 4 1 3 7 6 7 8 9 11 14 18 21 20 17 15 13 10 10 16 20 21 26 35 38 40 41 40 38 36 34 32 29 27 24 23 23 23 22 21 21 22 24 24 25 24 24 24 23 23 22 21 20 18 17 18 18 16 14 13 12 11
2 3 6 2 2 6 6 8 6 5 6 5 3 5 3 2 3 4 3 2 4 2 1 1 1 3 1 1 4 5 8 7 6 9 11 14 17 17 17 16 14 14 15 20 24 25 25 31 37 39 40 40 40 38 35 32 29 27 25 23 22 22 22 21 19 20 22 24 25 24 24 23 22 22 21 20 19 18 17 17 17 17 17 16 14 13
2 1 7 2 2 6 2 6 4 2 2 5 5 3 3 3 1 1 4 3 3 3 1 2 2 1 1 2 2 4 5 6 7 9 10 13 17 20 20 18 17 18 20 21 22 24 26 29 34 38 40 40 40 39 36 34 31 29 28 26 24 22 20 20 19 19 20 22 23 23 23 22 22 22 21 20 19 19 18 17 16 16 17 17 16 15
1 2 4 4 1 3 3 4 2 2 3 3 3 2 1 3 3 2 3 3 4 4 2 1 2 2 3 2 1 1 1 4 8 8 8 14 19 22 23 21 20 21 24 24 22 22 25 28 31 35 38 39 39 38 37 36 34 33 31 30 28 26 25 24 24 24 23 22 22 22 22 22 22 22 21 20 20 20 19 18 17 17 16 16 16 16
1 2 2 5 4 0 1 0 4 5 2 3 3 2 0 1 1 2 1 2 4 4 3 2 1 3 3 2 3 3 1 3 9 9 9 14 19 21 23 23 21 22 24 25 24 23 24 25 27 31 35 36 35 35 36 36 36 36 35 34 32 30 29 28 27 26 25 22 21 21 21 22 22 22 22 21 21 21 20 19 18 17 16 15 16 15
1 2 1 3 4 2 2 4 3 5 5 5 4 1 3 2 2 4 1 1 2 4 4 5 3 4 3 1 2 4 2 4 10 13 13 16 20 21 21 19 18 19 20 20 20 20 22 23 23 26 31 34 33 31 32 34 35 35 35 35 33 30 29 28 25 25 25 22 20 21 21 22 22 23 23 23 23 22 21 20 19 18 17 16 15 14
1 2 2 2 2 2 6 6 3 2 3 5 4 1 3 3 3 4 3 2 2 4 2 3 2 3 3 1 2 4 7 8 12 17 17 17 20 22 21 20 18 16 15 15 13 13 15 17 19 21 23 27 30 29 29 32 34 33 32 32 33 31 28 27 25 25 25 23 21 20 21 22 23 23 23 23 23 23 22 21 21 20 20 18 16 15
1 2 3 3 4 4 5 6 4 5 6 5 3 2 2 1 2 4 5 3 4 4 2 3 1 3 2 2 4 8 13 14 13 18 21 20 19 21 22 21 20 18 15 13 12 12 13 15 19 21 20 20 23 26 27 30 33 33 32 30 31 31 28 26 26 26 26 25 22 21 21 22 23 23 23 23 23 22 22 22 21 21 21 20 17 15
3 1 2 2 2 4 6 6 7 7 5 3 3 4 3 3 5 4 2 3 3 3 4 5 2 3 0 3 5 9 13 13 13 16 21 21 21 21 21 20 19 18 17 15 13 13 15 17 17 19 21 18 17 22 26 28 31 33 32 29 28 28 27 26 26 26 27 27 24 22 21 21 22 22 22 22 22 22 21 21 21 21 21 20 18 15
2 2 2 3 3 2 2 2 3 4 3 2 3 5 6 4 4 3 2 4 2 3 4 5 3 2 2 4 5 7 10 11 12 15 18 21 22 21 20 19 18 17 17 16 15 14 15 16 14 14 17 16 16 21 25 27 27 27 28 27 25 26 26 27 27 27 29 30 27 24 22 21 22 22 21 21 21 21 21 20 20 20 20 20 19 17
3 4 4 5 4 3 4 4 5 3 2 3 4 6 7 5 3 4 4 2 3 5 2 2 5 8 7 7 8 8 8 9 11 14 16 19 20 20 20 19 17 16 16 15 15 14 14 13 11 9 8 9 12 17 22 24 25 24 26 27 26 27 27 27 27 29 30 32 29 26 23 22 22 21 21 21 20 20 20 20 20 20 20 20 19 19
4 5 6 3 3 0 2 2 4 2 1 1 4 6 7 8 5 5 4 4 7 7 1 5 9 13 12 11 10 9 8 8 10 14 17 19 20 20 20 19 18 17 16 15 15 14 14 12 9 8 8 8 11 15 18 20 22 22 24 26 26 27 28 28 28 30 31 31 29 26 25 23 22 22 21 21 21 20 20 20 21 21 21 22 21 21
5 3 5 3 4 5 7 7 5 3 1 2 5 7 8 9 5 5 3 2 6 5 4 8 12 11 10 11 9 8 10 12 13 17 20 21 21 21 20 19 18 17 17 17 16 15 14 13 11 11 12 12 12 12 12 14 16 18 20 22 21 21 25 26 26 28 29 28 26 24 23 22 22 22 21 21 21 20 20 21 21 22 23 24 24 23
4 3 3 3 3 7 11 10 7 5 5 6 8 9 9 8 5 6 4 4 5 4 6 12 11 3 3 7 9 11 15 18 20 21 21 21 21 20 20 19 17 17 17 17 17 17 16 15 14 14 15 14 13 13 14 15 16 16 17 19 17 16 18 19 20 22 24 25 25 24 22 20 20 21 22 22 22 21 21 21 21 22 23 24 25 24
4 4 1 2 3 5 10 11 9 6 7 8 10 13 13 10 6 6 4 4 7 7 8 12 10 3 1 7 14 17 19 21 22 21 21 21 21 21 20 19 17 16 16 16 16 16 15 15 14 14 15 16 17 16 16 16 15 14 14 14 14 13 13 14 15 14 14 16 19 20 19 17 18 20 21 21 22 22 22 21 20 21 22 23 24 24
4 3 1 3 3 3 7 10 9 7 7 10 12 14 14 10 4 2 1 0 5 10 11 9 7 4 5 10 16 18 20 20 20 21 22 21 22 22 22 20 19 17 16 15 15 15 15 14 13 13 13 15 16 16 16 15 14 12 11 11 10 9 9 11 10 8 8 11 14 16 15 14 15 16 16 17 18 19 21 20 19 19 20 22 24 24
2 3 2 3 2 3 7 8 6 5 6 6 7 8 9 8 4 2 4 4 4 11 10 5 5 6 8 12 13 13 15 18 19 23 25 25 24 24 23 22 20 19 18 18 17 16 16 16 16 15 14 13 13 14 15 15 15 13 11 10 9 7 8 10 9 9 12 14 14 13 12 12 13 13 11 12 13 15 17 18 18 18 19 21 23 24
3 3 2 2 3 2 7 8 6 6 4 2 5 5 5 4 5 7 6 7 5 2 3 3 6 10 11 12 12 12 14 17 21 23 26 28 28 25 23 22 20 20 19 18 18 18 16 16 17 16 15 16 15 16 17 17 17 16 14 13 12 10 10 12 12 13 14 13 10 8 8 9 9 9 9 9 11 12 13 15 16 16 17 18 21 24
4 4 2 2 3 1 5 8 6 3 1 5 6 6 5 2 7 9 8 9 9 6 4 9 9 10 12 14 17 19 19 20 22 24 26 28 27 27 25 23 22 22 20 19 19 20 18 17 18 18 18 19 19 19 19 18 18 17 16 15 15 14 13 14 14 13 12 10 8 7 6 7 7 7 8 8 10 11 12 12 14 14 14 15 18 21
3 2 2 2 3 2 3 4 2 2 5 6 7 7 4 4 7 7 6 8 10 9 2 7 8 8 13 18 21 24 26 26 24 24 27 26 24 26 26 24 22 22 21 21 21 21 20 18 18 19 20 20 19 19 20 19 18 18 16 15 15 15 14 14 14 12 10 10 10 9 8 9 9 9 8 8 9 10 12 12 13 14 14 15 17 19
4 3 2 2 2 3 4 2 1 2 5 5 5 4 3 3 3 1 1 3 7 8 5 6 7 9 15 20 23 27 30 27 19 16 23 26 24 23 25 24 23 22 21 22 21 21 20 18 17 18 18 18 17 16 17 17 17 16 16 16 15 15 14 13 12 11 9 8 8 8 8 8 8 8 8 8 8 8 10 12 12 13 15 16 16 17
5 3 3 3 1 2 4 2 1 2 2 4 5 5 5 7 5 2 3 2 5 6 6 8 9 10 16 20 24 28 26 17 7 7 19 25 24 24 25 24 22 22 23 22 21 20 19 18 18 18 17 16 15 14 13 13 12 13 14 14 13 13 13 13 12 10 8 7 6 5 5 5 5 5 6 6 6 6 8 9 10 11 13 14 14 13
6 4 4 5 2 2 4 3 2 2 2 4 6 8 11 14 9 1 4 2 4 2 6 10 12 13 17 19 20 20 16 8 3 9 20 25 25 25 27 24 22 22 22 21 20 20 18 17 17 17 16 15 15 13 12 10 9 9 9 9 9 10 10 10 10 9 8 7 6 5 5 4 4 4 4 4 4 4 5 7 8 10 10 10 10 10
6 5 4 5 3 2 4 2 1 2 2 3 6 11 17 17 7 4 2 4 4 7 10 14 17 16 17 18 15 9 5 2 7 16 25 27 25 25 26 24 23 23 22 20 19 18 17 15 14 14 15 15 14 12 10 9 7 6 5 5 5 6 6 6 7 7 6 6 6 5 4 4 3 4 4 4 4 4 4 5 6 8 8 8 9 8
4 3 3 3 2 2 3 2 1 2 3 4 8 14 18 14 5 4 2 5 6 12 16 19 24 25 23 22 16 9 9 6 11 21 28 27 26 25 24 23 23 22 20 20 18 17 16 13 11 11 12 12 12 11 10 8 7 6 5 5 5 4 4 3 4 5 5 6 6 6 5 5 5 5 5 5 5 5 6 6 6 7 8 8 7 7
2 2 2 2 2 2 1 2 1 2 2 5 11 14 11 6 1 3 3 3 4 14 19 19 24 29 28 23 19 17 17 15 16 23 27 28 28 26 24 23 23 21 19 18 16 15 14 12 10 8 8 9 9 10 9 9 8 7 7 7 7 6 5 4 4 5 5 5 6 6 6 7 7 7 7 7 7 7 7 7 7 8 8 7 7 7
1 1 2 1 0 1 2 3 3 1 3 10 13 8 4 2 3 3 1 2 6 16 22 21 23 29 28 23 19 19 20 21 24 29 30 30 30 28 25 24 22 20 18 16 14 13 11 9 8 7 8 8 7 7 8 7 7 7 7 7 7 6 6 5 5 4 4 4 5 5 6 7 7 8 8 8 8 9 9 9 9 9 8 8 7 7
0 2 0 2 1 2 2 1 1 4 6 12 10 1 1 1 1 2 2 1 6 17 24 24 24 25 26 24 22 22 26 29 33 36 35 33 31 29 27 24 21 19 18 15 13 12 9 8 7 7 8 9 8 8 7 7 7 7 7 8 8 7 6 6 5 4 4 4 4 4 5 6 7 7 8 9 9 9 9 10 10 10 9 9 9 8
2 3 2 2 1 2 3 4 5 5 6 9 6 2 3 4 3 3 2 1 6 16 25 26 23 21 21 23 23 24 29 34 37 37 36 34 32 29 27 24 21 18 17 15 13 12 10 8 7 7 8 8 8 8 8 7 8 8 8 8 8 8 8 7 6 6 5 5 5 5 5 6 6 7 7 8 9 9 9 10 10 10 10 10 9 9
2 1 2 2 1 1 1 3 5 6 6 7 5 4 5 6 5 5 4 2 4 13 21 24 24 22 19 20 23 24 25 28 32 35 36 33 31 29 27 23 20 18 17 15 13 11 8 6 6 6 7 7 7 8 8 8 8 8 8 8 8 8 9 9 8 7 7 7 7 7 7 7 7 7 7 8 8 9 9 10 10 10 10 10 10 10
2 2 2 2 1 1 1 3 6 7 7 7 6 5 5 5 4 4 3 3 3 8 16 22 25 25 22 23 25 26 25 23 23 27 33 33 30 28 26 22 20 18 16 13 11 8 6 5 5 6 6 6 6 6 7 8 8 8 8 8 8 8 9 10 10 10 9 9 9 9 9 9 10 10 9 9 9 9 9 10 10 11 11 12 12 13
2 3 1 1 1 1 4 6 5 5 7 7 8 6 4 4 5 4 4 3 3 5 12 19 24 26 27 27 27 28 32 31 26 24 27 29 28 25 22 20 19 17 14 12 9 7 6 5 5 5 6 6 5 4 5 5 6 7 8 8 8 9 10 10 11 12 12 12 11 11 11 12 12 13 12 12 12 12 11 11 12 11 11 12 14 15
1 1 1 1 0 2 5 6 3 3 4 6 9 8 7 4 5 7 8 7 5 5 10 15 19 23 26 28 29 31 35 37 34 31 28 26 24 22 19 17 16 15 13 11 8 7 6 7 7 6 6 5 5 4 3 3 3 5 7 8 10 11 11 12 13 13 14 14 14 14 13 14 14 15 15 15 15 15 14 14 14 14 13 12 13 15
2 2 2 3 1 3 5 3 2 2 2 1 5 7 7 5 3 6 9 10 10 11 12 15 17 19 21 25 30 35 36 35 33 31 27 23 21 19 18 17 16 15 13 11 9 8 8 8 8 7 6 5 4 4 3 4 5 6 7 9 11 12 12 13 14 14 15 15 15 15 15 15 15 15 16 16 17 17 16 15 15 15 15 15 14 14
4 4 4 5 3 4 4 4 4 2 2 1 2 4 4 4 3 1 3 4 8 13 15 16 16 17 18 20 24 28 30 30 28 26 23 21 19 17 16 16 15 14 12 11 10 10 10 9 8 6 5 5 5 5 6 8 9 10 10 9 9 10 11 12 13 14 14 15 15 15 15 15 15 16 16 17 17 18 18 18 16 16 16 16 16 15
Wind_Direction
178 189 226 202 203 209 191 165 169 130 90 96 107 149 169 178 207 188 123 161 158 148 167 159 153 163 170 168 163 175 181 179 179 177 180 186 188 187 187 187 189 192 194 196 199 200 201 201 197 198 201 200 196 193 193 196 194 193 190 184 181 180 178 176 177 180 179 177 178 180 178 169 162 159 158 159 162 165 170 174 174 177 183 183 180 184
169 195 233 214 203 201 185 159 159 141 127 110 109 147 179 181 199 152 125 157 157 138 122 141 147 166 174 168 160 170 175 177 183 184 187 191 189 191 191 189 191 193 193 195 197 198 199 199 196 195 196 197 195 193 196 199 194 194 196 192 188 186 184 181 181 183 183 183 182 182 179 171 166 165 160 160 162 166 174 179 180 183 188 186 182 182
177 229 240 221 209 198 187 140 132 135 177 189 120 140 177 173 113 92 134 159 154 130 138 142 148 167 170 161 160 171 178 184 187 186 190 193 190 193 195 191 191 191 190 193 195 195 197 199 196 193 194 194 192 192 195 199 197 197 199 198 197 194 190 187 187 186 185 186 186 186 184 177 177 174 164 160 165 171 178 182 185 187 191 193 188 187
200 245 235 215 205 183 241 146 117 118 191 164 146 144 180 178 149 104 160 161 140 108 137 138 135 154 164 161 163 168 171 178 186 188 192 199 197 196 196 193 190 189 190 191 193 194 195 198 197 194 195 195 192 193 195 197 199 200 201 201 202 201 195 191 193 190 185 185 186 188 188 188 191 185 178 177 177 181 184 186 187 183 186 193 193 197
232 258 232 177 186 178 233 252 130 151 256 215 177 180 179 180 161 111 156 147 86 73 127 125 107 177 190 175 164 158 159 168 178 184 194 208 204 197 197 197 193 191 192 192 192 193 195 197 198 196 196 196 196 197 197 197 200 203 204 202 204 206 199 194 197 193 187 188 189 187 187 192 194 191 193 190 181 183 186 188 186 178 183 192 194 200
248 267 261 140 214 191 214 255 175 162 213 325 223 205 183 174 137 120 145 141 95 137 157 136 123 239 225 191 187 166 165 173 174 184 200 205 197 196 197 201 203 198 195 195 194 194 195 197 198 198 197 198 198 200 200 201 203 205 206 205 207 211 204 197 198 196 192 193 192 191 190 190 191 192 196 192 183 182 180 181 184 181 188 195 197 197
244 254 209 173 217 200 216 249 197 155 139 327 246 204 170 155 139 141 153 154 148 183 181 163 130 192 235 215 204 188 180 183 177 188 203 203 196 196 198 203 209 202 195 195 195 195 196 197 198 198 198 199 199 200 202 203 206 208 207 208 212 215 209 200 199 200 198 197 195 196 195 194 194 195 195 187 180 180 175 179 185 187 192 197 199 198
215 230 216 193 197 189 217 243 196 145 135 236 237 163 150 148 151 159 161 161 140 109 161 185 124 117 220 223 188 187 196 195 190 197 203 205 203 199 199 201 204 202 196 192 193 195 196 197 198 199 200 200 200 200 202 204 208 209 208 210 217 218 211 204 202 203 203 201 199 198 198 199 198 198 197 187 180 182 182 184 187 189 196 200 202 202
201 211 218 199 198 203 214 226 189 151 164 243 209 151 163 164 163 167 162 149 115 97 160 207 163 109 252 230 165 181 201 198 199 205 201 201 203 200 198 198 198 198 195 191 193 195 196 198 199 200 201 200 200 201 203 206 208 209 209 214 220 217 208 206 206 204 205 205 203 202 200 199 200 199 202 198 189 188 189 188 184 182 193 200 202 203
227 224 219 184 193 216 214 220 186 164 199 237 179 166 179 167 158 154 141 112 108 115 205 206 187 151 247 204 165 179 208 206 198 201 202 198 198 199 198 198 197 193 191 191 194 197 198 199 200 201 201 200 201 203 204 207 209 209 211 216 220 212 205 208 209 204 205 205 205 206 202 200 203 203 207 214 204 196 194 191 185 183 191 194 201 208
259 259 251 197 204 214 208 211 189 184 202 180 123 148 121 76 92 91 39 33 93 189 233 202 190 175 191 200 181 187 206 198 189 190 198 197 197 198 199 200 198 191 191 192 193 197 199 199 199 200 200 200 201 203 204 207 209 210 213 218 217 210 206 210 209 205 205 205 206 207 204 204 208 209 214 221 215 205 201 195 191 192 199 198 202 213
266 260 254 214 217 212 194 207 199 194 198 151 103 124 107 50 25 43 8 16 101 235 250 196 185 181 229 223 201 211 210 178 188 191 191 193 195 198 200 202 199 192 192 193 192 195 196 195 196 197 199 200 201 202 204 207 209 211 215 217 214 211 210 211 210 207 205 206 207 206 206 207 211 215 219 224 224 218 209 200 197 200 210 216 215 216
281 234 230 218 224 206 169 198 218 190 174 155 134 129 125 101 28 49 -0 358 207 247 257 169 164 183 246 240 203 209 209 184 194 197 190 189 192 197 200 201 199 196 194 193 192 195 195 194 195 196 198 200 201 203 205 208 210 213 216 218 215 213 212 212 211 208 206 208 208 206 207 210 213 217 221 227 231 228 220 210 206 209 217 224 225 224
318 272 259 214 234 206 172 175 208 183 166 164 154 153 153 134 133 146 102 321 252 257 263 150 156 209 260 259 251 219 207 188 192 196 190 189 193 198 201 199 201 202 196 191 193 198 198 196 196 198 199 201 203 205 206 209 211 214 217 218 217 215 213 213 212 210 209 210 211 208 209 212 216 220 224 230 235 236 232 224 220 224 229 233 237 239
153 260 243 198 223 195 177 186 184 157 156 175 159 150 160 152 150 155 165 209 238 258 155 140 159 228 225 237 307 271 205 180 184 193 186 188 194 196 198 200 205 208 199 193 198 204 202 200 198 199 201 203 205 206 207 210 212 215 217 219 219 217 214 213 211 212 213 213 213 212 212 214 217 221 226 231 236 240 238 234 231 233 236 240 248 252
150 241 247 243 247 184 176 190 162 127 135 200 144 122 161 179 159 146 182 196 176 108 127 145 185 248 211 263 326 336 167 155 158 171 171 179 188 189 192 198 201 202 199 199 206 209 205 203 201 201 203 206 207 208 210 211 213 215 217 219 220 218 215 213 212 213 215 215 215 215 215 218 219 222 225 228 233 235 235 235 235 237 241 245 252 257
116 264 277 291 278 216 184 175 155 153 173 180 132 153 201 181 146 132 181 192 104 112 193 133 288 299 310 328 353 43 90 102 118 137 148 161 172 176 173 169 169 177 194 207 213 214 206 203 203 203 205 207 208 210 212 214 215 216 217 218 219 218 215 213 215 217 218 219 217 217 218 220 222 223 224 227 231 230 228 231 237 244 248 248 252 256
138 269 291 288 250 258 202 157 141 151 147 128 165 199 190 115 112 112 129 95 77 126 251 4 267 296 11 355 341 45 83 83 93 112 121 136 146 144 136 135 142 163 185 201 212 219 211 204 205 205 206 209 210 212 215 217 218 218 219 218 216 216 214 212 214 218 220 221 220 219 218 220 223 225 226 228 229 228 225 227 235 244 249 250 250 250
110 292 292 260 204 287 310 115 110 15 75 126 160 177 128 132 198 116 141 155 122 137 258 341 332 277 189 211 328 33 87 94 93 102 106 112 116 116 130 153 166 173 183 187 196 213 214 207 207 207 209 211 211 213 215 216 219 220 221 221 218 216 214 212 215 218 221 223 223 223 221 220 222 224 225 227 227 227 227 228 234 240 244 247 246 244
62 109 278 284 279 290 357 75 158 271 348 60 82 35 67 140 166 159 153 154 135 145 182 356 350 268 229 229 174 103 118 100 99 96 94 105 112 116 130 155 176 187 195 193 193 203 205 204 207 207 210 213 213 213 213 214 217 219 220 220 217 215 214 214 217 219 221 223 224 226 224 221 220 222 225 225 225 227 228 230 235 237 238 241 244 241
340 92 269 300 339 345 175 200 190 181 150 88 55 9 317 64 122 148 108 100 125 142 163 142 253 259 254 246 167 155 143 92 104 102 95 102 112 123 135 148 165 179 190 197 203 207 204 202 205 207 209 211 211 212 213 213 215 217 219 218 215 214 217 219 221 223 224 225 227 228 225 222 220 221 223 223 225 227 228 231 232 233 235 238 242 241
350 69 286 305 356 40 240 273 218 178 166 144 115 147 185 160 131 128 89 333 110 124 155 154 185 250 271 280 173 143 111 100 108 108 105 106 114 127 139 148 158 168 176 186 199 211 214 210 207 209 211 211 211 213 213 213 213 216 218 218 218 219 222 226 229 230 228 229 233 233 229 224 220 220 222 223 225 228 230 233 233 233 235 237 239 240
218 87 40 290 286 271 271 284 273 162 126 109 99 106 144 131 114 128 168 219 89 82 85 104 133 255 287 351 149 129 108 104 107 108 107 107 114 123 130 136 143 154 166 176 186 200 213 214 210 211 214 215 214 213 212 212 213 216 218 219 220 221 223 225 229 231 231 230 233 234 231 227 223 221 223 224 226 228 229 232 234 235 236 237 239 241
38 72 28 313 292 310 301 302 346 40 62 62 25 11 63 86 103 137 169 161 121 129 121 79 67 260 279 81 123 122 110 104 106 111 111 109 112 117 122 126 130 139 151 165 177 183 193 204 209 209 212 218 217 212 209 211 214 216 219 220 219 222 226 227 227 230 232 231 232 232 229 226 225 224 225 226 227 229 230 231 233 234 236 237 237 238
1 35 49 25 355 358 351 349 360 8 32 42 325 323 344 31 89 116 122 76 104 181 157 126 166 250 171 99 119 124 117 112 112 115 116 115 116 118 122 126 129 134 139 148 162 172 183 195 204 208 211 216 215 209 209 212 215 217 218 218 218 221 227 229 227 227 229 232 232 230 227 225 226 226 227 227 228 230 232 232 233 233 234 235 233 233
26 46 59 84 110 107 52 23 349 328 336 340 314 332 356 29 86 134 118 79 117 185 140 134 167 180 125 124 144 143 127 120 117 116 117 118 120 121 123 128 133 133 135 141 151 163 178 190 196 200 203 203 202 207 212 214 215 215 213 211 215 221 226 229 228 226 228 232 232 228 225 224 225 225 225 226 228 231 234 236 236 234 233 233 234 235
114 51 40 88 111 154 185 223 252 266 346 329 321 345 358 4 39 99 110 120 161 145 132 218 166 147 158 170 168 157 137 128 126 123 120 118 121 123 124 128 132 132 133 135 140 148 159 174 181 175 173 174 181 198 210 212 211 211 211 213 218 222 223 225 227 227 229 232 231 228 227 225 225 226 227 228 229 232 236 237 236 235 234 233 235 238
114 38 11 52 63 21 201 272 295 312 68 352 353 6 358 350 18 84 128 185 152 129 185 237 167 157 174 181 170 158 143 135 132 131 129 126 125 125 125 128 129 129 131 132 134 138 140 145 145 125 113 121 154 184 204 209 209 213 217 219 220 220 220 222 226 229 230 230 229 228 229 230 230 230 231 233 233 235 237 237 236 237 238 239 239 241
114 47 345 347 12 10 23 20 7 30 84 19 26 35 16 358 22 91 119 157 140 142 190 184 168 166 173 167 157 150 144 137 135 136 135 132 129 128 127 127 128 129 130 130 130 132 130 128 120 106 102 109 131 155 170 181 192 200 206 210 210 209 210 213 218 224 227 228 230 231 231 232 232 231 232 233 234 235 238 239 239 239 241 243 244 244
105 76 352 330 354 10 19 21 17 32 46 23 15 28 28 13 36 78 78 74 78 92 144 146 142 132 148 148 139 142 143 136 132 134 135 133 131 130 127 125 124 128 132 130 129 129 127 123 116 108 104 105 113 122 129 147 168 178 185 193 195 192 195 200 208 217 221 225 229 233 236 235 232 231 231 232 232 233 236 241 242 241 242 245 246 246
68 101 64 4 8 359 8 14 6 8 40 37 14 11 13 11 29 61 82 85 73 78 107 118 118 95 210 145 136 141 143 135 132 133 134 134 134 130 127 124 123 125 128 130 129 127 127 125 122 118 112 110 113 117 124 135 146 153 161 171 178 180 185 194 201 206 212 218 219 223 228 230 230 230 229 229 231 232 236 240 243 242 242 244 246 247
45 94 92 46 44 332 346 2 348 337 22 31 15 5 358 346 345 30 355 173 122 122 115 111 128 168 186 149 137 141 143 137 136 136 134 135 136 132 129 126 125 124 122 125 127 126 126 126 127 130 129 127 126 125 127 132 133 135 138 144 155 166 172 182 190 192 203 212 209 208 211 216 223 225 224 224 227 231 236 239 242 246 247 247 248 248
28 92 99 74 93 285 328 353 347 2 33 13 349 352 337 312 310 1 359 4 112 134 136 154 170 158 156 148 139 142 146 143 143 142 141 141 138 134 132 128 125 124 121 122 123 121 119 119 121 126 131 136 141 140 140 143 143 141 139 139 141 141 145 156 164 172 185 194 193 190 191 197 207 213 217 221 224 229 235 239 242 246 249 250 248 246
13 77 102 103 133 274 328 358 24 43 54 271 289 330 319 319 40 60 41 16 11 98 116 114 133 139 149 154 148 149 151 149 150 149 146 144 139 135 134 132 130 130 129 127 123 116 113 114 114 113 117 126 135 139 141 143 142 143 146 148 146 144 145 147 153 162 169 171 169 168 176 186 193 200 209 217 221 227 232 236 238 242 246 250 247 244
25 43 49 60 100 88 348 21 45 42 282 260 296 325 309 347 63 68 56 28 5 354 74 102 121 139 144 142 141 140 139 141 145 146 145 144 142 141 139 137 134 134 134 133 127 119 114 113 111 109 116 126 130 131 133 130 128 133 142 149 151 153 155 157 161 166 170 171 172 172 180 190 195 202 212 220 226 232 236 238 237 237 242 250 248 242
87 64 66 59 74 95 56 52 103 234 282 301 320 334 346 23 36 39 33 22 5 348 30 118 121 116 115 120 127 130 130 130 130 138 147 149 147 146 144 142 140 137 134 132 132 129 124 119 114 113 119 127 128 127 126 122 118 120 126 135 144 148 153 158 161 162 163 169 173 174 180 189 198 204 211 221 232 237 240 245 246 241 240 248 250 244
103 106 76 55 58 112 116 125 198 306 325 320 323 337 359 358 345 26 29 348 349 350 13 97 99 97 106 113 119 123 125 121 115 131 150 153 151 147 144 143 143 140 135 132 132 134 132 125 118 117 119 123 126 126 125 124 125 124 120 122 130 138 146 153 154 151 151 156 160 165 172 182 197 207 211 220 233 242 245 249 253 250 247 250 255 252
73 98 117 111 71 86 97 90 55 28 310 270 275 296 328 327 296 185 118 331 329 3 57 103 108 110 115 118 124 127 124 117 105 147 155 151 150 147 142 142 142 141 142 139 133 132 135 134 129 127 127 125 123 124 128 132 136 137 132 126 126 132 139 143 144 145 150 155 156 163 168 172 188 206 212 218 229 245 255 258 260 258 253 253 256 257
40 48 97 95 50 56 94 104 137 157 223 261 278 298 330 336 324 48 79 319 294 40 103 116 111 111 119 125 131 131 126 125 164 172 159 152 149 148 146 144 142 142 144 143 135 131 135 140 141 140 140 135 128 127 136 145 148 147 145 141 139 140 139 138 139 140 146 155 159 163 165 161 163 172 184 195 205 223 243 252 256 256 254 253 255 256
19 14 45 62 54 86 98 110 192 197 250 281 288 306 326 334 344 86 60 280 221 155 141 129 122 123 127 131 133 118 90 144 185 169 160 154 151 152 152 149 145 145 147 146 143 140 140 144 148 150 150 147 142 141 148 161 169 172 173 171 166 163 157 150 148 148 152 163 172 176 178 177 177 176 177 177 179 193 210 223 237 247 250 252 254 254
3 8 47 79 84 54 84 119 243 267 250 272 301 316 330 340 9 117 202 248 189 163 161 149 146 151 151 148 147 116 74 91 156 161 158 156 155 154 153 150 147 147 150 151 151 150 149 153 157 160 161 161 161 166 175 187 200 210 213 214 216 216 207 192 178 177 183 189 194 198 202 204 212 215 213 207 202 206 215 220 226 234 240 245 249 250
-0 9 21 64 55 12 94 122 355 294 251 307 319 326 343 355 296 200 218 254 196 176 173 164 160 161 158 155 153 134 115 122 151 163 165 165 163 158 155 154 152 152 155 156 157 158 160 162 167 174 179 178 179 186 195 206 220 229 227 224 226 228 227 224 216 210 208 208 210 215 217 219 223 227 229 229 222 219 224 229 230 231 232 235 241 246
122 86 350 316 122 40 51 58 44 226 285 340 339 336 7 43 217 221 243 281 213 189 182 177 172 168 163 160 159 157 156 161 170 174 173 170 167 163 160 160 159 159 163 164 164 169 173 176 182 191 196 197 203 211 215 219 223 222 220 221 224 226 226 224 224 223 223 223 225 226 225 225 227 229 231 232 227 222 223 226 230 234 236 237 237 237
145 136 157 260 196 89 77 75 199 227 296 344 351 335 158 131 233 310 328 250 202 194 191 187 182 176 173 172 170 169 169 168 170 173 173 170 169 166 164 165 166 168 173 176 177 182 190 198 202 204 204 205 212 219 225 228 223 216 215 218 222 228 231 227 223 223 229 233 234 233 232 232 233 234 236 237 235 230 226 224 226 231 235 237 239 236
251 210 163 167 175 148 177 216 266 294 329 355 10 79 125 114 89 19 351 140 182 193 195 195 192 187 184 181 176 170 169 170 171 172 172 169 168 167 166 169 172 174 180 185 188 194 202 210 212 212 210 210 211 213 217 222 222 221 221 221 224 231 236 235 230 225 226 232 238 242 246 248 250 250 250 250 250 246 242 236 232 231 233 236 238 238
260 227 137 139 201 316 207 253 314 347 13 27 46 96 117 112 84 44 25 44 164 189 196 196 193 191 189 181 169 160 162 168 171 172 173 170 168 169 171 173 176 181 187 192 197 203 206 209 216 220 217 212 205 204 207 214 220 224 223 224 227 232 237 243 245 241 237 239 245 252 257 262 265 266 266 268 268 265 262 258 252 247 247 248 249 249
334 33 86 106 56 62 194 292 344 24 45 43 57 97 119 115 94 60 32 39 100 172 193 197 196 197 198 192 182 173 170 171 171 172 172 171 170 172 175 176 177 181 187 195 201 205 211 219 221 219 218 212 203 198 200 205 212 218 221 227 234 239 244 249 253 256 256 254 256 260 263 268 272 274 275 278 278 275 273 272 269 266 265 265 264 264
346 22 35 138 121 151 234 277 329 56 80 67 61 65 73 101 119 113 104 92 87 149 185 193 196 196 194 192 192 188 182 181 184 181 174 171 171 172 173 175 177 181 189 196 199 205 220 233 228 219 214 212 207 204 203 206 213 221 227 236 243 249 256 260 262 265 268 267 267 268 268 271 275 278 281 283 283 283 282 281 280 279 278 279 280 279
102 357 267 175 149 305 286 291 320 96 98 69 62 54 49 81 144 144 135 135 134 155 178 184 187 192 194 194 195 190 183 183 187 188 181 176 175 174 176 181 187 192 198 200 203 213 224 229 229 225 217 209 210 217 226 233 237 240 246 252 255 258 263 268 270 272 273 274 275 276 276 277 278 280 282 284 285 286 287 289 290 290 289 288 289 289
139 244 194 120 68 280 268 255 141 146 213 31 58 54 46 51 113 151 149 151 154 158 169 175 176 181 188 192 190 185 180 179 183 186 186 184 184 185 188 192 195 198 202 207 214 222 227 228 225 220 215 215 222 237 266 287 294 292 285 276 271 269 270 270 272 275 276 277 279 281 281 281 280 280 281 282 282 283 283 285 289 292 292 291 289 289
198 211 180 160 188 227 225 198 160 160 224 253 16 15 17 19 11 76 123 146 164 167 169 175 178 181 183 185 186 185 183 182 184 189 192 193 195 199 201 203 206 208 209 213 217 220 224 225 223 222 229 242 252 271 292 303 307 308 304 294 282 277 274 274 275 276 278 281 283 284 285 285 284 284 284 282 283 284 283 282 281 283 287 289 288 286
Height
1495 1500 1501 1500 1500 1498 1498 1500 1502 1502 1504 1507 1509 1512 1515 1518 1518 1514 1513 1511 1509 1521 1527 1525 1528 1529 1530 1531 1531 1533 1535 1536 1538 1538 1538 1540 1542 1544 1546 1548 1550 1552 1554 1556 1558 1559 1561 1563 1565 1567 1568 1570 1571 1573 1575 1576 1578 1579 1580 1581 1582 1584 1585 1586 1587 1588 1589 1590 1591 1592 1593 1594 1595 1596 1597 1598 1599 1599 1600 1600 1601 1602 1603 1604 1605 1606
1494 1500 1498 1495 1496 1496 1497 1499 1500 1503 1504 1506 1509 1513 1515 1516 1517 1513 1513 1512 1510 1520 1528 1526 1528 1530 1529 1530 1531 1533 1535 1534 1536 1537 1538 1539 1541 1543 1545 1547 1549 1551 1553 1555 1557 1558 1560 1562 1564 1566 1568 1569 1571 1572 1574 1576 1577 1579 1580 1581 1582 1584 1585 1586 1587 1588 1589 1590 1591 1592 1593 1594 1595 1596 1597 1598 1598 1599 1600 1601 1601 1602 1603 1603 1605 1606
1497 1498 1494 1492 1493 1494 1496 1497 1500 1503 1503 1506 1508 1511 1516 1516 1516 1516 1513 1512 1512 1520 1529 1528 1530 1533 1530 1529 1531 1533 1533 1533 1535 1536 1537 1539 1540 1542 1544 1546 1548 1550 1552 1554 1555 1557 1559 1561 1563 1565 1567 1568 1570 1572 1574 1576 1577 1579 1580 1581 1583 1583 1584 1586 1587 1588 1589 1590 1591 1592 1593 1594 1595 1596 1597 1598 1599 1599 1600 1601 1601 1602 1603 1603 1604 1605
1500 1495 1490 1490 1492 1494 1496 1497 1500 1503 1503 1506 1508 1510 1514 1513 1515 1522 1519 1515 1514 1518 1525 1528 1532 1535 1532 1530 1531 1532 1534 1534 1536 1537 1538 1539 1539 1541 1543 1544 1546 1548 1550 1552 1553 1555 1558 1560 1562 1564 1565 1567 1569 1571 1573 1575 1577 1578 1580 1581 1582 1583 1584 1586 1587 1588 1589 1590 1592 1593 1594 1595 1596 1597 1597 1598 1599 1599 1600 1601 1601 1602 1603 1603 1604 1605
1496 1490 1487 1489 1492 1493 1496 1498 1500 1503 1505 1506 1506 1507 1510 1510 1510 1516 1517 1515 1517 1520 1521 1526 1539 1540 1533 1534 1533 1531 1534 1535 1536 1538 1539 1539 1539 1540 1542 1543 1545 1546 1547 1549 1551 1554 1556 1558 1560 1562 1564 1566 1568 1570 1571 1573 1575 1577 1579 1581 1582 1584 1585 1586 1587 1588 1589 1591 1592 1593 1594 1595 1596 1596 1597 1598 1598 1599 1600 1600 1601 1602 1603 1603 1604 1605
1493 1488 1488 1491 1493 1494 1497 1498 1499 1502 1505 1506 1503 1500 1503 1507 1508 1511 1513 1517 1527 1534 1524 1524 1546 1548 1534 1533 1535 1532 1533 1534 1535 1537 1538 1538 1538 1539 1540 1542 1543 1545 1546 1548 1549 1552 1554 1556 1559 1561 1563 1565 1567 1568 1570 1572 1574 1576 1578 1580 1582 1583 1584 1586 1587 1588 1589 1590 1591 1592 1593 1594 1595 1595 1596 1597 1598 1599 1600 1600 1601 1602 1603 1604 1604 1605
1490 1487 1488 1491 1494 1495 1497 1499 1497 1499 1506 1509 1500 1494 1498 1503 1507 1510 1513 1519 1531 1535 1523 1518 1539 1549 1540 1535 1533 1533 1534 1533 1534 1536 1536 1536 1535 1537 1539 1540 1542 1543 1545 1546 1548 1551 1553 1555 1557 1559 1562 1563 1565 1567 1570 1572 1574 1575 1578 1579 1581 1583 1584 1586 1587 1588 1589 1590 1591 1592 1593 1594 1595 1595 1596 1598 1599 1600 1600 1601 1601 1602 1603 1604 1604 1605
1487 1488 1490 1491 1494 1497 1499 1498 1495 1496 1505 1507 1495 1492 1498 1501 1506 1508 1510 1517 1521 1522 1523 1520 1527 1541 1544 1536 1530 1532 1535 1534 1534 1534 1534 1533 1533 1535 1537 1539 1541 1541 1543 1544 1547 1549 1551 1553 1555 1557 1560 1562 1564 1567 1569 1572 1573 1575 1577 1579 1581 1582 1584 1585 1587 1588 1589 1590 1591 1592 1593 1594 1595 1596 1597 1598 1599 1600 1601 1601 1602 1602 1603 1604 1604 1605
1485 1488 1490 1491 1495 1498 1496 1494 1492 1494 1501 1498 1490 1492 1496 1496 1501 1504 1508 1515 1514 1521 1535 1530 1524 1537 1545 1536 1528 1531 1535 1535 1533 1531 1530 1530 1531 1533 1535 1537 1539 1540 1541 1543 1544 1547 1549 1552 1554 1556 1559 1562 1564 1566 1569 1571 1573 1575 1577 1578 1580 1582 1583 1585 1586 1587 1588 1589 1590 1592 1593 1594 1595 1596 1598 1599 1599 1600 1601 1601 1602 1603 1603 1604 1604 1605
1485 1486 1486 1488 1493 1493 1491 1489 1489 1493 1496 1491 1488 1492 1493 1496 1500 1504 1512 1515 1515 1527 1537 1530 1524 1534 1543 1538 1532 1534 1534 1529 1527 1526 1526 1527 1528 1530 1532 1534 1536 1538 1539 1541 1543 1545 1548 1550 1553 1556 1559 1561 1564 1566 1568 1570 1572 1574 1576 1578 1579 1581 1582 1584 1586 1587 1588 1589 1590 1591 1592 1593 1595 1596 1597 1598 1599 1600 1601 1601 1602 1603 1603 1604 1604 1605
1483 1482 1483 1484 1486 1485 1485 1486 1486 1488 1489 1487 1490 1496 1499 1503 1504 1511 1519 1518 1526 1536 1529 1521 1521 1527 1537 1537 1530 1526 1519 1515 1518 1522 1523 1524 1525 1527 1529 1531 1533 1535 1538 1540 1543 1544 1547 1550 1553 1556 1558 1561 1563 1566 1568 1570 1572 1574 1575 1577 1578 1580 1582 1583 1585 1586 1587 1589 1590 1591 1592 1593 1594 1596 1597 1598 1599 1600 1600 1601 1602 1603 1603 1604 1604 1605
1483 1483 1482 1478 1478 1478 1481 1485 1485 1484 1485 1488 1494 1499 1507 1514 1515 1527 1534 1531 1541 1542 1521 1513 1518 1525 1534 1529 1520 1515 1507 1506 1512 1515 1517 1519 1521 1524 1526 1529 1531 1534 1537 1539 1542 1545 1547 1550 1553 1555 1557 1560 1562 1565 1567 1569 1571 1573 1574 1576 1577 1579 1581 1582 1584 1586 1587 1588 1589 1590 1592 1593 1594 1595 1596 1597 1598 1599 1600 1601 1602 1602 1603 1603 1604 1605
1482 1480 1478 1475 1474 1474 1480 1487 1487 1486 1488 1491 1496 1502 1516 1529 1534 1546 1553 1546 1545 1535 1515 1511 1518 1527 1527 1514 1509 1510 1506 1506 1507 1508 1513 1516 1519 1522 1524 1527 1530 1533 1536 1539 1542 1545 1547 1549 1551 1554 1556 1559 1561 1563 1565 1567 1569 1571 1573 1575 1576 1577 1580 1581 1583 1585 1586 1588 1589 1590 1592 1593 1594 1595 1596 1597 1598 1599 1600 1601 1601 1602 1603 1603 1604 1604
1485 1480 1475 1475 1474 1470 1476 1485 1488 1490 1490 1492 1497 1503 1517 1532 1545 1561 1564 1556 1544 1526 1511 1510 1518 1527 1520 1506 1505 1505 1503 1504 1505 1507 1512 1515 1518 1521 1523 1527 1530 1533 1536 1539 1542 1545 1547 1549 1550 1553 1555 1557 1560 1562 1564 1566 1568 1570 1572 1573 1575 1576 1579 1580 1582 1584 1586 1588 1589 1590 1592 1593 1594 1595 1596 1597 1598 1599 1600 1600 1601 1602 1602 1603 1604 1604
1494 1490 1478 1474 1474 1469 1471 1476 1479 1483 1487 1488 1489 1495 1506 1515 1531 1550 1556 1551 1540 1525 1516 1515 1522 1528 1518 1508 1504 1500 1498 1501 1503 1507 1510 1514 1518 1521 1524 1528 1531 1535 1537 1540 1543 1545 1548 1549 1550 1552 1554 1556 1558 1561 1563 1564 1566 1568 1570 1572 1574 1576 1578 1580 1582 1583 1585 1587 1589 1590 1591 1592 1593 1594 1595 1596 1597 1598 1599 1600 1601 1602 1602 1603 1604 1604
1496 1491 1474 1468 1468 1466 1469 1469 1469 1477 1485 1487 1484 1491 1500 1498 1505 1522 1529 1526 1523 1526 1527 1523 1523 1522 1513 1506 1500 1497 1499 1500 1503 1507 1509 1513 1518 1521 1526 1529 1532 1536 1538 1540 1543 1545 1547 1549 1550 1551 1553 1555 1557 1559 1561 1563 1565 1567 1569 1571 1573 1575 1577 1578 1580 1582 1584 1586 1587 1589 1590 1591 1592 1593 1595 1596 1597 1598 1599 1600 1601 1601 1602 1603 1603 1604
1495 1488 1471 1467 1466 1463 1466 1465 1465 1473 1482 1486 1487 1489 1490 1484 1488 1504 1515 1514 1514 1527 1533 1527 1525 1520 1512 1509 1503 1500 1503 1504 1505 1508 1509 1513 1517 1522 1527 1530 1534 1537 1540 1542 1543 1544 1545 1547 1549 1550 1552 1554 1556 1558 1559 1561 1563 1565 1567 1570 1572 1574 1575 1577 1579 1581 1582 1584 1585 1587 1588 1589 1591 1592 1593 1595 1596 1598 1599 1599 1600 1601 1602 1602 1603 1603
1492 1488 1472 1468 1469 1464 1462 1463 1463 1465 1471 1481 1487 1483 1481 1483 1486 1494 1512 1523 1526 1536 1536 1529 1529 1528 1523 1519 1511 1506 1508 1508 1508 1509 1511 1515 1518 1522 1526 1529 1534 1537 1540 1542 1542 1543 1544 1545 1547 1549 1551 1553 1554 1556 1558 1560 1562 1564 1566 1568 1570 1572 1573 1575 1577 1578 1580 1581 1582 1584 1586 1587 1589 1590 1592 1594 1595 1597 1598 1599 1599 1600 1601 1601 1602 1602
1487 1490 1477 1468 1471 1467 1461 1465 1470 1467 1465 1471 1476 1474 1478 1492 1495 1493 1507 1523 1531 1543 1544 1534 1531 1530 1527 1523 1517 1514 1514 1512 1511 1511 1513 1516 1519 1523 1525 1528 1531 1534 1537 1538 1540 1541 1542 1543 1546 1548 1549 1551 1552 1555 1557 1559 1561 1563 1564 1566 1568 1570 1571 1573 1575 1576 1578 1579 1580 1582 1584 1586 1588 1589 1591 1592 1594 1595 1596 1597 1598 1599 1599 1600 1601 1601
1484 1490 1483 1469 1468 1469 1465 1470 1477 1476 1470 1467 1471 1474 1477 1485 1491 1491 1498 1508 1522 1539 1545 1539 1536 1530 1525 1522 1518 1518 1517 1513 1513 1514 1515 1517 1519 1522 1524 1526 1529 1531 1533 1536 1538 1539 1540 1543 1546 1547 1548 1550 1552 1554 1556 1558 1560 1561 1563 1565 1566 1568 1569 1571 1572 1573 1575 1577 1579 1582 1583 1585 1586 1587 1588 1589 1591 1592 1593 1594 1596 1597 1598 1599 1600 1600
1482 1487 1487 1475 1468 1471 1474 1475 1475 1476 1475 1474 1477 1481 1481 1482 1484 1489 1495 1500 1511 1529 1538 1542 1541 1531 1521 1519 1517 1517 1516 1514 1514 1515 1517 1519 1519 1521 1522 1524 1526 1529 1532 1535 1537 1538 1541 1543 1545 1546 1547 1549 1551 1553 1555 1557 1558 1559 1562 1564 1566 1568 1569 1570 1571 1572 1575 1578 1579 1581 1582 1583 1584 1585 1586 1587 1588 1589 1590 1592 1594 1595 1597 1598 1599 1599
1484 1487 1490 1484 1477 1476 1476 1473 1471 1471 1472 1473 1478 1481 1483 1483 1485 1494 1504 1505 1505 1514 1524 1531 1533 1527 1520 1516 1514 1515 1516 1516 1515 1515 1518 1520 1520 1521 1523 1524 1526 1528 1531 1533 1535 1537 1539 1542 1544 1545 1546 1548 1549 1551 1554 1555 1556 1558 1560 1562 1565 1568 1569 1570 1571 1574 1577 1578 1579 1580 1580 1582 1582 1583 1585 1586 1587 1588 1589 1591 1592 1594 1595 1596 1597 1598
1485 1488 1490 1487 1482 1479 1476 1472 1471 1471 1469 1470 1475 1479 1481 1482 1484 1492 1501 1505 1507 1511 1514 1519 1525 1524 1518 1514 1514 1515 1516 1516 1518 1517 1518 1521 1521 1521 1523 1524 1526 1527 1529 1532 1534 1536 1538 1540 1542 1544 1546 1547 1548 1550 1551 1552 1554 1557 1559 1560 1562 1564 1566 1568 1570 1574 1576 1577 1577 1578 1578 1580 1581 1582 1583 1584 1586 1587 1588 1589 1590 1592 1593 1594 1596 1597
1486 1491 1492 1488 1483 1478 1473 1470 1469 1468 1471 1475 1478 1478 1479 1480 1481 1485 1490 1495 1506 1513 1513 1519 1529 1526 1517 1513 1515 1516 1516 1518 1520 1519 1519 1521 1522 1522 1523 1524 1525 1527 1529 1531 1533 1535 1537 1539 1541 1542 1544 1546 1548 1548 1548 1549 1553 1556 1557 1557 1560 1563 1565 1567 1569 1572 1575 1575 1575 1576 1576 1577 1578 1580 1581 1583 1584 1585 1586 1588 1589 1590 1591 1592 1594 1595
1490 1495 1496 1495 1492 1488 1484 1482 1480 1477 1478 1483 1484 1481 1480 1480 1480 1484 1487 1491 1503 1512 1510 1515 1530 1529 1518 1515 1517 1517 1517 1519 1521 1521 1521 1521 1523 1523 1524 1524 1526 1528 1529 1531 1532 1534 1536 1538 1539 1540 1542 1545 1548 1548 1547 1548 1551 1554 1555 1556 1559 1563 1566 1567 1568 1570 1572 1574 1574 1574 1574 1575 1577 1578 1579 1581 1582 1583 1585 1586 1587 1589 1590 1591 1592 1593
1492 1496 1498 1500 1505 1508 1508 1504 1499 1493 1488 1487 1486 1483 1481 1481 1481 1483 1489 1493 1503 1511 1509 1512 1525 1527 1519 1517 1519 1519 1519 1521 1522 1523 1523 1523 1524 1525 1526 1527 1528 1529 1530 1531 1532 1534 1536 1537 1539 1540 1540 1543 1547 1547 1547 1548 1550 1553 1555 1557 1560 1564 1565 1565 1567 1568 1569 1571 1572 1572 1573 1574 1575 1576 1578 1579 1581 1582 1583 1585 1586 1587 1588 1589 1590 1591
1492 1497 1500 1503 1507 1510 1509 1504 1498 1495 1494 1492 1489 1485 1483 1483 1482 1483 1489 1492 1498 1508 1513 1512 1517 1522 1521 1520 1520 1520 1520 1521 1523 1524 1525 1525 1526 1527 1528 1529 1529 1530 1531 1532 1533 1535 1537 1537 1538 1539 1539 1542 1546 1546 1546 1547 1549 1551 1553 1555 1558 1561 1561 1563 1564 1565 1567 1568 1570 1570 1571 1572 1573 1575 1576 1578 1579 1581 1582 1583 1584 1585 1586 1588 1588 1590
1494 1502 1504 1504 1505 1504 1501 1498 1493 1492 1495 1495 1492 1488 1485 1484 1483 1483 1487 1489 1493 1503 1513 1512 1511 1515 1518 1517 1518 1520 1521 1521 1523 1524 1525 1526 1528 1529 1530 1531 1531 1532 1532 1533 1535 1536 1538 1538 1539 1539 1540 1542 1544 1544 1544 1546 1547 1549 1552 1553 1554 1556 1558 1560 1561 1563 1564 1565 1567 1568 1569 1571 1572 1574 1575 1577 1578 1579 1580 1581 1582 1583 1585 1586 1586 1588
1498 1508 1508 1505 1504 1501 1498 1496 1493 1493 1495 1495 1493 1491 1488 1487 1485 1485 1489 1492 1491 1492 1499 1506 1510 1512 1513 1514 1516 1519 1520 1521 1523 1524 1525 1527 1529 1531 1532 1533 1533 1534 1534 1536 1537 1538 1539 1540 1540 1540 1541 1542 1544 1544 1544 1546 1547 1548 1550 1552 1553 1554 1556 1558 1560 1561 1562 1563 1565 1566 1568 1569 1571 1572 1574 1575 1576 1578 1579 1579 1580 1581 1583 1584 1585 1586
1501 1509 1510 1508 1505 1501 1499 1498 1496 1495 1495 1495 1495 1493 1491 1491 1490 1489 1494 1496 1493 1492 1495 1502 1510 1513 1512 1513 1515 1518 1520 1522 1523 1525 1527 1528 1531 1532 1533 1534 1535 1536 1537 1538 1538 1539 1540 1541 1541 1542 1543 1543 1544 1545 1545 1546 1547 1547 1549 1551 1552 1553 1554 1556 1559 1560 1559 1560 1562 1564 1567 1569 1570 1571 1572 1573 1574 1576 1576 1577 1579 1580 1581 1582 1583 1584
1500 1509 1512 1510 1507 1504 1503 1500 1498 1499 1499 1497 1497 1495 1494 1495 1493 1494 1497 1497 1498 1503 1503 1505 1512 1516 1514 1512 1514 1518 1521 1522 1523 1526 1528 1529 1531 1533 1534 1536 1537 1538 1539 1539 1540 1541 1541 1542 1543 1543 1544 1545 1545 1545 1545 1546 1546 1547 1549 1550 1551 1552 1553 1555 1557 1558 1558 1559 1560 1563 1565 1568 1570 1570 1570 1571 1572 1573 1574 1575 1576 1577 1579 1580 1581 1582
1502 1509 1512 1511 1512 1511 1508 1506 1504 1502 1498 1497 1499 1500 1501 1501 1497 1496 1497 1496 1498 1505 1509 1512 1515 1515 1512 1511 1515 1518 1521 1522 1524 1526 1528 1530 1532 1533 1535 1537 1538 1539 1540 1541 1542 1542 1542 1542 1543 1544 1545 1546 1547 1547 1547 1547 1547 1548 1549 1550 1551 1552 1553 1555 1556 1558 1560 1561 1562 1563 1564 1566 1569 1569 1568 1569 1570 1571 1572 1572 1573 1575 1576 1577 1578 1579
1506 1508 1511 1514 1515 1514 1513 1511 1505 1502 1506 1510 1508 1506 1507 1506 1500 1497 1498 1498 1497 1500 1505 1508 1507 1507 1508 1510 1514 1518 1521 1523 1524 1525 1527 1529 1532 1534 1535 1537 1538 1540 1541 1543 1543 1543 1543 1543 1544 1544 1545 1546 1547 1548 1549 1549 1550 1549 1549 1551 1553 1553 1554 1556 1557 1559 1562 1562 1562 1562 1563 1565 1567 1567 1567 1567 1568 1569 1570 1570 1571 1572 1573 1574 1575 1576
1508 1507 1511 1514 1513 1516 1516 1508 1505 1515 1525 1521 1510 1505 1507 1506 1502 1502 1505 1505 1503 1500 1499 1499 1499 1502 1507 1509 1512 1517 1520 1522 1524 1526 1527 1528 1530 1534 1536 1538 1540 1541 1543 1544 1545 1545 1545 1545 1546 1546 1547 1547 1548 1549 1550 1551 1551 1551 1552 1553 1554 1555 1556 1558 1560 1561 1562 1561 1561 1561 1563 1564 1565 1566 1566 1567 1567 1568 1568 1569 1569 1569 1570 1572 1573 1574
1509 1508 1511 1513 1515 1521 1519 1513 1521 1534 1529 1514 1507 1506 1506 1504 1503 1504 1507 1509 1508 1504 1501 1500 1502 1504 1506 1508 1511 1515 1519 1522 1525 1527 1528 1529 1530 1533 1536 1539 1541 1542 1544 1546 1546 1546 1547 1548 1548 1549 1549 1549 1550 1551 1551 1552 1552 1553 1554 1555 1556 1557 1558 1560 1560 1560 1560 1560 1560 1560 1561 1562 1563 1564 1565 1566 1566 1566 1567 1567 1567 1566 1567 1570 1571 1572
1509 1511 1513 1515 1519 1525 1528 1529 1534 1533 1519 1508 1509 1508 1505 1505 1506 1506 1509 1511 1512 1509 1505 1505 1507 1508 1508 1511 1514 1516 1520 1523 1526 1529 1531 1532 1532 1533 1536 1539 1542 1543 1545 1546 1547 1548 1549 1549 1550 1550 1550 1551 1552 1552 1553 1553 1553 1554 1555 1556 1557 1558 1558 1559 1559 1559 1559 1559 1559 1560 1560 1561 1562 1563 1563 1564 1564 1565 1565 1565 1565 1565 1565 1568 1570 1570
1510 1512 1514 1518 1521 1524 1530 1532 1528 1524 1519 1515 1513 1512 1511 1513 1513 1513 1515 1516 1515 1512 1510 1510 1511 1512 1513 1515 1517 1520 1522 1524 1529 1533 1534 1534 1535 1536 1537 1539 1542 1544 1545 1546 1547 1548 1550 1551 1551 1552 1552 1553 1554 1554 1554 1555 1555 1555 1556 1557 1557 1558 1559 1559 1559 1559 1559 1559 1559 1560 1560 1561 1561 1562 1562 1563 1563 1564 1564 1564 1564 1563 1564 1566 1568 1568
1510 1512 1513 1518 1523 1523 1525 1527 1529 1534 1532 1522 1515 1515 1515 1514 1514 1514 1517 1518 1516 1514 1513 1512 1513 1515 1516 1518 1521 1522 1523 1529 1535 1537 1536 1537 1537 1537 1538 1541 1542 1544 1545 1546 1547 1548 1550 1552 1552 1553 1554 1554 1555 1556 1556 1556 1556 1557 1557 1557 1557 1558 1559 1559 1559 1559 1559 1559 1560 1560 1560 1561 1561 1561 1562 1563 1563 1564 1564 1564 1564 1563 1563 1565 1567 1567
1512 1514 1513 1515 1522 1524 1524 1527 1533 1537 1532 1521 1515 1515 1514 1514 1512 1512 1518 1522 1518 1516 1516 1514 1514 1516 1516 1519 1522 1522 1525 1533 1538 1537 1537 1538 1538 1537 1539 1541 1543 1544 1545 1546 1547 1548 1551 1553 1554 1555 1555 1556 1556 1557 1557 1558 1558 1558 1558 1558 1558 1558 1558 1559 1559 1559 1560 1560 1560 1560 1560 1560 1561 1561 1562 1562 1563 1563 1564 1564 1563 1563 1564 1565 1565 1565
1515 1516 1516 1519 1524 1525 1526 1529 1531 1529 1525 1521 1517 1514 1513 1512 1510 1516 1527 1527 1517 1515 1517 1516 1516 1518 1519 1520 1522 1524 1528 1533 1534 1534 1536 1538 1539 1539 1540 1541 1543 1544 1545 1546 1547 1549 1551 1553 1554 1555 1556 1557 1557 1558 1558 1559 1559 1559 1559 1559 1558 1558 1558 1558 1558 1559 1559 1560 1560 1560 1560 1560 1561 1561 1562 1562 1563 1563 1563 1563 1563 1563 1563 1563 1563 1563
1521 1521 1523 1525 1526 1527 1527 1529 1530 1527 1523 1520 1517 1514 1512 1510 1513 1523 1529 1522 1515 1517 1518 1516 1516 1517 1518 1519 1520 1523 1528 1531 1534 1536 1538 1538 1539 1541 1542 1543 1544 1545 1545 1546 1548 1549 1551 1553 1554 1555 1556 1557 1558 1558 1559 1559 1559 1559 1559 1559 1558 1558 1558 1558 1558 1558 1559 1559 1559 1560 1560 1560 1561 1561 1561 1562 1562 1563 1563 1563 1563 1563 1563 1562 1562 1562
1526 1526 1528 1528 1530 1531 1530 1529 1531 1530 1523 1519 1517 1515 1512 1514 1519 1523 1521 1516 1516 1518 1516 1516 1516 1515 1516 1519 1519 1520 1523 1528 1536 1541 1542 1540 1540 1541 1542 1543 1544 1545 1546 1547 1548 1550 1551 1553 1554 1555 1555 1556 1557 1558 1558 1559 1559 1559 1559 1558 1558 1558 1558 1558 1558 1558 1559 1559 1559 1559 1559 1560 1560 1560 1561 1562 1562 1562 1563 1562 1562 1562 1562 1562 1562 1562
1527 1528 1531 1531 1532 1534 1533 1533 1536 1534 1525 1519 1518 1516 1515 1518 1519 1518 1516 1516 1517 1516 1516 1517 1517 1516 1517 1519 1520 1521 1521 1524 1533 1540 1542 1541 1540 1539 1541 1543 1543 1545 1546 1547 1549 1550 1551 1552 1554 1554 1555 1555 1556 1556 1557 1558 1558 1558 1558 1558 1558 1558 1558 1558 1558 1558 1558 1558 1558 1559 1559 1559 1559 1560 1560 1560 1561 1561 1562 1561 1561 1561 1561 1561 1561 1561
1527 1528 1532 1532 1531 1533 1535 1535 1534 1530 1523 1520 1520 1519 1518 1518 1517 1516 1516 1516 1515 1515 1517 1517 1517 1518 1519 1519 1520 1523 1523 1525 1531 1535 1537 1539 1538 1539 1540 1541 1543 1544 1545 1547 1549 1550 1551 1552 1553 1553 1554 1555 1555 1556 1556 1556 1557 1557 1557 1557 1557 1557 1557 1557 1557 1558 1558 1558 1558 1558 1558 1558 1559 1559 1559 1559 1560 1560 1560 1560 1560 1560 1560 1560 1560 1560
1527 1526 1528 1528 1528 1530 1532 1530 1527 1524 1523 1522 1521 1520 1519 1518 1518 1518 1517 1515 1515 1515 1516 1517 1518 1520 1521 1521 1523 1524 1526 1528 1530 1532 1534 1536 1536 1537 1539 1540 1541 1543 1545 1547 1548 1549 1550 1551 1552 1552 1553 1554 1555 1555 1555 1555 1555 1555 1556 1556 1556 1556 1556 1556 1557 1557 1557 1557 1557 1558 1558 1558 1558 1558 1558 1558 1558 1558 1559 1559 1559 1559 1558 1558 1558 1558
1526 1525 1525 1526 1526 1528 1528 1526 1525 1524 1524 1523 1522 1521 1520 1520 1519 1519 1518 1517 1516 1516 1516 1518 1519 1519 1521 1523 1524 1527 1530 1533 1533 1533 1533 1534 1535 1536 1537 1538 1540 1542 1544 1546 1547 1549 1549 1550 1550 1551 1552 1553 1554 1555 1555 1555 1554 1554 1554 1555 1555 1555 1555 1555 1556 1556 1556 1557 1556 1557 1557 1557 1557 1557 1557 1557 1557 1557 1557 1557 1557 1557 1557 1557 1557 1557
1526 1525 1525 1526 1527 1528 1528 1526 1525 1524 1524 1524 1523 1522 1521 1520 1520 1520 1520 1519 1518 1518 1518 1519 1519 1521 1523 1525 1525 1526 1531 1536 1540 1539 1535 1533 1534 1535 1536 1538 1540 1542 1544 1545 1547 1548 1549 1549 1549 1550 1551 1552 1553 1553 1554 1554 1554 1554 1554 1554 1554 1554 1554 1554 1555 1555 1555 1555 1555 1555 1555 1555 1555 1555 1555 1555 1555 1555 1555 1555 1555 1555 1555 1554 1554 1554
1526 1525 1526 1527 1528 1528 1527 1525 1525 1525 1525 1524 1524 1523 1522 1522 1521 1521 1521 1520 1520 1520 1520 1520 1520 1521 1523 1524 1525 1525 1528 1534 1541 1543 1539 1536 1535 1536 1537 1539 1540 1542 1544 1545 1546 1548 1548 1548 1549 1549 1550 1551 1552 1552 1553 1554 1553 1553 1553 1553 1553 1553 1553 1553 1554 1553 1553 1554 1554 1554 1554 1554 1553 1553 1553 1553 1553 1553 1553 1553 1553 1553 1553 1553 1552 1552
1525 1525 1526 1527 1528 1528 1527 1525 1525 1526 1526 1525 1525 1524 1523 1523 1522 1522 1522 1522 1522 1522 1522 1522 1523 1523 1523 1524 1524 1526 1527 1530 1535 1539 1540 1538 1537 1538 1539 1540 1541 1543 1544 1545 1546 1547 1548 1548 1549 1549 1549 1550 1551 1552 1552 1553 1553 1553 1553 1552 1552 1552 1552 1552 1552 1552 1552 1552 1552 1552 1552 1552 1552 1551 1551 1551 1551 1551 1551 1551 1550 1550 1551 1551 1551 1550
1525 1525 1526 1528 1529 1529 1527 1525 1525 1526 1527 1526 1525 1525 1525 1524 1524 1524 1524 1524 1524 1524 1524 1524 1525 1526 1526 1526 1526 1527 1529 1531 1534 1537 1537 1537 1537 1538 1539 1540 1541 1543 1544 1545 1546 1546 1547 1548 1548 1549 1549 1550 1550 1551 1551 1551 1552 1552 1552 1551 1551 1551 1551 1551 1551 1551 1551 1551 1550 1550 1550 1550 1550 1549 1549 1549 1548 1548 1548 1549 1549 1548 1548 1549 1549 1549
1523 1524 1524 1526 1527 1527 1525 1524 1525 1525 1526 1525 1525 1525 1526 1526 1525 1525 1525 1525 1525 1525 1525 1526 1527 1528 1529 1529 1530 1531 1531 1533 1535 1537 1537 1537 1538 1538 1539 1540 1541 1542 1543 1544 1545 1545 1546 1547 1547 1548 1548 1549 1549 1549 1550 1550 1550 1550 1550 1550 1549 1549 1549 1549 1549 1549 1549 1549 1549 1548 1548 1548 1547 1547 1547 1547 1547 1546 1546 1546 1547 1547 1547 1547 1547 1547